This demonstration page uses our WeatherBlox Daily Observations layout. Learn more.

Left ArrowRight Arrow

Hourly Observations for August 10, 2019

Temp ( °F °C ) Dew Point ( °F °C ) Humidity (%) Winds ( mph kmh ) Pressure ( in mb ) Visibility ( mi km ) Precip ( " mm )
12:53 am 00:53 Mostly Cloudy 75 23.9 72 22.2 90 90 Calm 29.93 1014 10 16 0.00 0.00
1:53 am 01:53 Mostly Cloudy 73 22.8 71 21.7 94 94 Calm 29.92 1013 10 16 0.00 0.00
2:53 am 02:53 Clear 72 22.2 71 21.7 97 97 Calm 29.91 1013 10 16 0.00 0.00
3:53 am 03:53 Clear 71 21.7 71 21.7 100 100 Calm 29.91 1013 10 16 0.00 0.00
4:53 am 04:53 Clear 70 21.1 70 21.1 100 100 Calm 29.91 1013 7 11 0.00 0.00
5:53 am 05:53 Clear 69 20.6 69 20.6 100 100 Calm 29.91 1013 7 11 0.00 0.00
6:19 am 06:19 Partly Cloudy with Mist and Fog 69 20.6 69 20.6 100 100 S 3 6 29.93 1014 3 4 0.00 0.00
6:22 am 06:22 Mostly Cloudy with Mist and Fog 69 20.6 69 20.6 100 100 Calm 29.93 1014 1 2 0.00 0.00
6:31 am 06:31 Mostly Cloudy with Fog 68 20 68 20 100 100 Calm 29.94 1014 1 1 0.00 0.00
6:39 am 06:39 Cloudy with Mist and Fog 68 20 68 20 100 100 Calm 29.94 1014 2 3 0.00 0.00
6:53 am 06:53 Cloudy with Mist and Fog 68 20 68 20 100 100 Calm 29.93 1013 3 4 0.00 0.00
6:58 am 06:58 Cloudy with Mist and Fog 68 20 68 20 100 100 Calm 29.94 1014 1 1 0.00 0.00
7:26 am 07:26 Cloudy with Mist and Fog 68 20 68 20 100 100 Calm 29.95 1014 2 3 0.00 0.00
7:36 am 07:36 Partly Cloudy with Mist and Fog 69 20.6 69 20.6 100 100 Calm 29.94 1014 3 5 0.00 0.00
7:53 am 07:53 Sunny with Mist and Fog 70 21.1 70 21.1 100 100 Calm 29.94 1014 4 6 0.00 0.00
8:31 am 08:31 Mostly Sunny 71 21.7 71 21.7 100 100 Calm 29.96 1015 8 13 0.00 0.00
8:53 am 08:53 Mostly Cloudy 73 22.8 72 22.2 96 96 Calm 29.96 1015 8 13 0.00 0.00
9:07 am 09:07 Partly Cloudy 74 23.3 72 22.2 94 94 Calm 29.96 1015 8 13 0.00 0.00
9:40 am 09:40 Mostly Cloudy 75 23.9 72 22.2 90 90 Calm 29.96 1015 10 16 0.00 0.00
9:53 am 09:53 Mostly Cloudy 77 25 73 22.8 88 88 SSW 3 6 29.97 1015 10 16 0.00 0.00
10:21 am 10:21 Partly Cloudy 77 25 72 22.2 85 85 SSW 3 6 29.96 1014 10 16 0.00 0.00
10:53 am 10:53 Mostly Sunny 79 26.1 73 22.8 82 82 W 3 6 29.97 1015 10 16 0.00 0.00
11:53 am 11:53 Mostly Cloudy 83 28.3 72 22.2 70 70 VRB 3 6 29.97 1015 10 16 0.00 0.00
12:53 pm 12:53 Partly Cloudy 84 28.9 71 21.7 65 65 VRB 6 9 29.96 1015 10 16 0.00 0.00
1:53 pm 13:53 Mostly Sunny 87 30.6 69 20.6 55 55 NW 8 13 29.95 1014 10 16 0.00 0.00
2:53 pm 14:53 Partly Cloudy 86 30 69 20.6 57 57 WNW 7 11 29.93 1014 10 16 0.00 0.00
3:53 pm 15:53 Mostly Sunny 87 30.6 69 20.6 55 55 NW 10 17 29.92 1013 10 16 0.00 0.00
4:53 pm 16:53 Mostly Cloudy 88 31.1 68 20 52 52 N 12 19 29.91 1013 10 16 0.00 0.00
5:53 pm 17:53 Partly Cloudy 87 30.6 66 18.9 50 50 N 10 17 29.91 1013 10 16 0.00 0.00
6:53 pm 18:53 Sunny 85 29.4 64 17.8 50 50 N 8 13 29.92 1013 10 16 0.00 0.00
7:53 pm 19:53 Sunny 81 27.2 64 17.8 57 57 NE 6 9 29.93 1014 10 16 0.00 0.00
8:53 pm 20:53 Clear 76 24.4 64 17.8 67 67 NNE 6 9 29.95 1014 10 16 0.00 0.00
9:53 pm 21:53 Clear 74 23.3 64 17.8 71 71 NNE 6 9 29.96 1015 10 16 0.00 0.00
10:53 pm 22:53 Clear 72 22.2 63 17.2 73 73 Calm 29.99 1016 10 16 0.00 0.00
11:53 pm 23:53 Clear 71 21.7 63 17.2 76 76 Calm 29.99 1016 10 16 0.00 0.00

Powered by Vaisala Xweather